TimeEDT,TemperatureF,Dew PointF,Humidity,Sea Level PressureIn,VisibilityMPH,Wind Direction,Wind SpeedMPH,Gust SpeedMPH,PrecipitationIn,Events,Conditions,WindDirDegrees,DateUTC
12:53 AM,44.1,41.0,89,29.99,10.0,North,12.7,24.2,0.00,Rain,Light Rain,10,2013-04-24 04:53:00
1:53 AM,44.1,41.0,89,29.94,10.0,North,10.4,26.5,0.00,,Overcast,10,2013-04-24 05:53:00
2:53 AM,44.1,41.0,89,29.91,10.0,North,12.7,25.3,N/A,,Overcast,360,2013-04-24 06:53:00
3:53 AM,43.0,41.0,93,29.88,10.0,North,16.1,28.8,N/A,,Overcast,350,2013-04-24 07:53:00
4:53 AM,44.1,41.0,89,29.90,10.0,North,12.7,20.7,N/A,,Overcast,360,2013-04-24 08:53:00
5:53 AM,44.6,41.0,87,29.90,10.0,NNW,10.4,17.3,N/A,,Overcast,340,2013-04-24 09:53:00
6:53 AM,44.1,41.0,89,29.92,10.0,NW,11.5,24.2,N/A,,Overcast,320,2013-04-24 10:53:00
7:53 AM,45.0,41.0,86,29.92,10.0,Variable,6.9,20.7,N/A,,Overcast,0,2013-04-24 11:53:00
8:53 AM,46.9,42.1,83,29.95,10.0,WNW,10.4,19.6,N/A,,Overcast,300,2013-04-24 12:53:00
9:05 AM,46.4,42.8,87,29.96,10.0,WNW,9.2,-,N/A,,Overcast,300,2013-04-24 13:05:00
9:53 AM,48.0,42.1,80,29.95,10.0,Variable,6.9,-,N/A,,Overcast,0,2013-04-24 13:53:00
10:53 AM,50.0,44.1,80,29.94,10.0,WNW,6.9,-,N/A,,Overcast,290,2013-04-24 14:53:00
11:53 AM,54.0,46.0,75,29.94,10.0,West,10.4,-,N/A,,Overcast,280,2013-04-24 15:53:00
12:00 PM,55.4,46.4,72,29.94,10.0,West,9.2,17.3,N/A,,Overcast,270,2013-04-24 16:00:00
12:50 PM,60.8,46.4,59,29.92,10.0,WSW,10.4,-,N/A,,Partly Cloudy,250,2013-04-24 16:50:00
12:53 PM,61.0,46.9,60,29.92,10.0,West,10.4,-,N/A,,Partly Cloudy,260,2013-04-24 16:53:00
1:53 PM,63.0,48.0,58,29.89,10.0,SSW,12.7,-,N/A,,Clear,200,2013-04-24 17:53:00
2:53 PM,59.0,45.0,60,29.89,10.0,South,17.3,-,N/A,,Clear,170,2013-04-24 18:53:00
3:53 PM,61.0,45.0,56,29.88,10.0,SSW,13.8,-,N/A,,Clear,200,2013-04-24 19:53:00
4:53 PM,59.0,44.1,58,29.89,10.0,SSW,17.3,-,N/A,,Clear,210,2013-04-24 20:53:00
5:53 PM,55.9,43.0,62,29.88,10.0,SSW,20.7,-,N/A,,Clear,210,2013-04-24 21:53:00
6:53 PM,53.1,42.1,66,29.90,10.0,SW,18.4,28.8,N/A,,Clear,230,2013-04-24 22:53:00
7:53 PM,50.0,44.1,80,29.91,10.0,SW,17.3,26.5,N/A,,Clear,220,2013-04-24 23:53:00
8:40 PM,48.2,44.6,87,29.92,10.0,SSW,19.6,25.3,N/A,,Mostly Cloudy,210,2013-04-25 00:40:00
8:53 PM,48.9,45.0,86,29.93,9.0,SSW,15.0,25.3,N/A,,Overcast,210,2013-04-25 00:53:00
9:27 PM,48.2,46.4,93,29.94,9.0,SSW,19.6,25.3,N/A,,Overcast,210,2013-04-25 01:27:00
9:49 PM,48.2,46.4,93,29.95,3.0,SW,13.8,23.0,N/A,,Overcast,220,2013-04-25 01:49:00
9:53 PM,48.9,46.9,93,29.96,3.0,SW,15.0,23.0,N/A,,Overcast,220,2013-04-25 01:53:00
10:00 PM,48.2,46.4,93,29.96,2.0,SSW,16.1,23.0,N/A,,Overcast,210,2013-04-25 02:00:00
10:53 PM,48.9,46.9,93,29.94,4.0,SSW,15.0,20.7,N/A,,Overcast,210,2013-04-25 02:53:00
11:53 PM,50.0,48.0,93,29.94,3.0,SW,15.0,24.2,N/A,,Overcast,220,2013-04-25 03:53:00